Time,TemperatureF,DewpointF,PressureIn,WindDirection,WindDirectionDegrees,WindSpeedMPH,WindSpeedGustMPH,Humidity,HourlyPrecipIn,Conditions,Clouds,dailyrainin,SoftwareType,DateUTC
2013-03-27 00:12:00,42.6,37.0,30.24,WNW,287,0.0,0.0,81,0.00,,,0.00,weatherlink.com 1.10,2013-03-27 04:12:00,
2013-03-27 00:27:00,42.2,37.0,30.24,WNW,287,0.0,1.0,83,0.00,,,0.00,weatherlink.com 1.10,2013-03-27 04:27:00,
2013-03-27 00:42:00,42.0,37.0,30.24,WNW,287,0.0,1.0,83,0.00,,,0.00,weatherlink.com 1.10,2013-03-27 04:42:00,
2013-03-27 00:57:00,42.0,38.0,30.24,WNW,287,0.0,1.0,84,0.00,,,0.00,weatherlink.com 1.10,2013-03-27 04:57:00,
2013-03-27 01:12:00,42.7,38.0,30.23,NNW,332,2.0,5.0,82,0.00,,,0.00,weatherlink.com 1.10,2013-03-27 05:12:00,
2013-03-27 01:27:00,43.1,37.0,30.23,NW,318,1.0,2.0,80,0.00,,,0.00,weatherlink.com 1.10,2013-03-27 05:27:00,
2013-03-27 01:42:00,43.5,37.0,30.23,NNW,334,2.0,4.0,77,0.00,,,0.00,weatherlink.com 1.10,2013-03-27 05:42:00,
2013-03-27 01:57:00,43.8,36.0,30.24,NNW,336,2.0,5.0,74,0.00,,,0.00,weatherlink.com 1.10,2013-03-27 05:57:00,
2013-03-27 02:12:00,43.5,35.0,30.24,NW,320,1.0,4.0,73,0.00,,,0.00,weatherlink.com 1.10,2013-03-27 06:12:00,
2013-03-27 02:28:00,42.7,35.0,30.23,NW,320,0.0,2.0,74,0.00,,,0.00,weatherlink.com 1.10,2013-03-27 06:28:00,
2013-03-27 02:42:00,42.0,35.0,30.23,NW,320,1.0,2.0,75,0.00,,,0.00,weatherlink.com 1.10,2013-03-27 06:42:00,
2013-03-27 02:57:00,41.8,34.0,30.23,NNW,333,0.0,2.0,75,0.00,,,0.00,weatherlink.com 1.10,2013-03-27 06:57:00,
2013-03-27 03:12:00,41.6,35.0,30.23,NNW,331,1.0,2.0,76,0.00,,,0.00,weatherlink.com 1.10,2013-03-27 07:12:00,
2013-03-27 03:27:00,41.3,34.0,30.22,NW,323,1.0,3.0,75,0.00,,,0.00,weatherlink.com 1.10,2013-03-27 07:27:00,
2013-03-27 03:42:00,41.4,34.0,30.22,North,352,3.0,4.0,74,0.00,,,0.00,weatherlink.com 1.10,2013-03-27 07:42:00,
2013-03-27 03:57:00,41.5,33.0,30.22,NNW,342,1.0,4.0,73,0.00,,,0.00,weatherlink.com 1.10,2013-03-27 07:57:00,
2013-03-27 04:12:00,41.6,33.0,30.22,NNW,348,2.0,4.0,72,0.00,,,0.00,weatherlink.com 1.10,2013-03-27 08:12:00,
2013-03-27 04:28:00,41.0,33.0,30.22,NW,322,0.0,3.0,73,0.00,,,0.00,weatherlink.com 1.10,2013-03-27 08:28:00,
2013-03-27 04:43:00,40.1,33.0,30.23,NNW,336,1.0,1.0,76,0.00,,,0.00,weatherlink.com 1.10,2013-03-27 08:43:00,
2013-03-27 04:58:00,39.2,33.0,30.23,NNW,333,0.0,0.0,78,0.00,,,0.00,weatherlink.com 1.10,2013-03-27 08:58:00,
2013-03-27 05:13:00,39.2,33.0,30.23,NW,317,0.0,3.0,78,0.00,,,0.00,weatherlink.com 1.10,2013-03-27 09:13:00,
2013-03-27 05:28:00,38.4,33.0,30.23,NNW,343,0.0,1.0,81,0.00,,,0.00,weatherlink.com 1.10,2013-03-27 09:28:00,
2013-03-27 05:43:00,36.8,33.0,30.23,NNW,343,0.0,0.0,85,0.00,,,0.00,weatherlink.com 1.10,2013-03-27 09:43:00,
2013-03-27 05:58:00,36.1,33.0,30.24,NNW,329,0.0,1.0,87,0.00,,,0.00,weatherlink.com 1.10,2013-03-27 09:58:00,
2013-03-27 06:14:00,35.5,33.0,30.24,NNW,329,0.0,0.0,89,0.00,,,0.00,weatherlink.com 1.10,2013-03-27 10:14:00,
2013-03-27 06:29:00,34.5,32.0,30.25,NNW,329,0.0,0.0,90,0.00,,,0.00,weatherlink.com 1.10,2013-03-27 10:29:00,
2013-03-27 06:43:00,33.7,31.0,30.25,NNW,329,0.0,0.0,91,0.00,,,0.00,weatherlink.com 1.10,2013-03-27 10:43:00,
2013-03-27 06:59:00,33.3,32.0,30.26,NNW,329,0.0,0.0,93,0.00,,,0.00,weatherlink.com 1.10,2013-03-27 10:59:00,
2013-03-27 07:13:00,32.8,31.0,30.27,NNW,329,0.0,0.0,93,0.00,,,0.00,weatherlink.com 1.10,2013-03-27 11:13:00,
2013-03-27 07:28:00,33.8,33.0,30.27,NNW,333,1.0,2.0,95,0.00,,,0.00,weatherlink.com 1.10,2013-03-27 11:28:00,
2013-03-27 07:44:00,36.9,34.0,30.27,NNW,343,1.0,4.0,89,0.00,,,0.00,weatherlink.com 1.10,2013-03-27 11:44:00,
2013-03-27 07:58:00,39.7,34.0,30.28,North,354,2.0,6.0,80,0.00,,,0.00,weatherlink.com 1.10,2013-03-27 11:58:00,
2013-03-27 08:14:00,41.4,33.0,30.29,NNE,26,7.0,11.0,73,0.00,,,0.00,weatherlink.com 1.10,2013-03-27 12:14:00,
2013-03-27 08:29:00,42.5,33.0,30.29,North,360,7.0,9.0,70,0.00,,,0.00,weatherlink.com 1.10,2013-03-27 12:29:00,
2013-03-27 08:44:00,43.7,34.0,30.30,NNW,336,3.0,7.0,70,0.00,,,0.00,weatherlink.com 1.10,2013-03-27 12:44:00,
2013-03-27 08:59:00,44.3,34.0,30.30,NNW,330,4.0,11.0,67,0.00,,,0.00,weatherlink.com 1.10,2013-03-27 12:59:00,
2013-03-27 09:14:00,45.4,33.0,30.31,NNW,339,4.0,10.0,62,0.00,,,0.00,weatherlink.com 1.10,2013-03-27 13:14:00,
2013-03-27 09:29:00,46.6,34.0,30.32,North,4,3.0,8.0,61,0.00,,,0.00,weatherlink.com 1.10,2013-03-27 13:29:00,
2013-03-27 09:44:00,47.3,33.0,30.32,North,353,4.0,9.0,58,0.00,,,0.00,weatherlink.com 1.10,2013-03-27 13:44:00,
2013-03-27 09:59:00,48.5,33.0,30.32,NW,323,2.0,7.0,56,0.00,,,0.00,weatherlink.com 1.10,2013-03-27 13:59:00,
2013-03-27 10:14:00,49.0,32.0,30.32,NNW,339,4.0,9.0,53,0.00,,,0.00,weatherlink.com 1.10,2013-03-27 14:14:00,
2013-03-27 10:30:00,49.5,32.0,30.32,NNW,348,2.0,9.0,52,0.00,,,0.00,weatherlink.com 1.10,2013-03-27 14:30:00,
2013-03-27 10:45:00,50.9,32.0,30.32,North,353,1.0,8.0,48,0.00,,,0.00,weatherlink.com 1.10,2013-03-27 14:45:00,
2013-03-27 11:00:00,51.4,32.0,30.32,NNW,339,5.0,8.0,47,0.00,,,0.00,weatherlink.com 1.10,2013-03-27 15:00:00,
2013-03-27 11:15:00,51.6,33.0,30.32,WSW,249,4.0,7.0,49,0.00,,,0.00,weatherlink.com 1.10,2013-03-27 15:15:00,
2013-03-27 11:30:00,52.7,32.0,30.32,North,5,4.0,7.0,46,0.00,,,0.00,weatherlink.com 1.10,2013-03-27 15:30:00,
2013-03-27 11:45:00,53.8,33.0,30.32,North,2,3.0,8.0,45,0.00,,,0.00,weatherlink.com 1.10,2013-03-27 15:45:00,
2013-03-27 12:00:00,54.9,33.0,30.32,NW,310,1.0,8.0,44,0.00,,,0.00,weatherlink.com 1.10,2013-03-27 16:00:00,
2013-03-27 12:15:00,54.8,31.0,30.32,North,354,3.0,8.0,41,0.00,,,0.00,weatherlink.com 1.10,2013-03-27 16:15:00,
2013-03-27 12:30:00,55.7,33.0,30.31,NE,38,7.0,10.0,43,0.00,,,0.00,weatherlink.com 1.10,2013-03-27 16:30:00,
2013-03-27 12:45:00,56.9,34.0,30.31,NNW,340,5.0,7.0,42,0.00,,,0.00,weatherlink.com 1.10,2013-03-27 16:45:00,
2013-03-27 13:00:00,57.6,33.0,30.30,WNW,301,2.0,8.0,40,0.00,,,0.00,weatherlink.com 1.10,2013-03-27 17:00:00,
2013-03-27 13:15:00,57.2,33.0,30.29,NW,325,3.0,6.0,41,0.00,,,0.00,weatherlink.com 1.10,2013-03-27 17:15:00,
2013-03-27 13:30:00,59.1,35.0,30.29,NW,313,3.0,9.0,40,0.00,,,0.00,weatherlink.com 1.10,2013-03-27 17:30:00,
2013-03-27 13:45:00,59.7,33.0,30.28,WNW,296,2.0,6.0,37,0.00,,,0.00,weatherlink.com 1.10,2013-03-27 17:45:00,
2013-03-27 14:00:00,60.0,35.0,30.27,WNW,286,3.0,8.0,40,0.00,,,0.00,weatherlink.com 1.10,2013-03-27 18:00:00,
2013-03-27 14:15:00,60.3,32.0,30.27,NW,322,4.0,13.0,34,0.00,,,0.00,weatherlink.com 1.10,2013-03-27 18:15:00,
2013-03-27 14:30:00,60.1,31.0,30.26,ENE,70,1.0,9.0,34,0.00,,,0.00,weatherlink.com 1.10,2013-03-27 18:30:00,
2013-03-27 14:45:00,60.9,33.0,30.25,WNW,302,4.0,12.0,35,0.00,,,0.00,weatherlink.com 1.10,2013-03-27 18:45:00,
2013-03-27 15:00:00,61.5,31.0,30.24,NW,325,3.0,12.0,32,0.00,,,0.00,weatherlink.com 1.10,2013-03-27 19:00:00,
2013-03-27 15:30:00,61.9,32.0,30.23,West,280,3.0,9.0,32,0.00,,,0.00,weatherlink.com 1.10,2013-03-27 19:30:00,
2013-03-27 15:45:00,61.5,30.0,30.23,WNW,299,5.0,13.0,30,0.00,,,0.00,weatherlink.com 1.10,2013-03-27 19:45:00,
2013-03-27 16:00:00,61.5,30.0,30.22,WNW,282,3.0,8.0,31,0.00,,,0.00,weatherlink.com 1.10,2013-03-27 20:00:00,
2013-03-27 16:15:00,61.3,29.0,30.22,West,274,3.0,7.0,30,0.00,,,0.00,weatherlink.com 1.10,2013-03-27 20:15:00,
2013-03-27 16:30:00,60.8,29.0,30.22,West,272,4.0,10.0,30,0.00,,,0.00,weatherlink.com 1.10,2013-03-27 20:30:00,
2013-03-27 16:45:00,60.2,31.0,30.22,WNW,283,3.0,8.0,33,0.00,,,0.00,weatherlink.com 1.10,2013-03-27 20:45:00,
2013-03-27 17:00:00,60.0,28.0,30.22,NW,315,2.0,8.0,30,0.00,,,0.00,weatherlink.com 1.10,2013-03-27 21:00:00,
2013-03-27 17:15:00,59.7,29.0,30.23,WNW,297,5.0,11.0,31,0.00,,,0.00,weatherlink.com 1.10,2013-03-27 21:15:00,
2013-03-27 17:30:00,59.5,29.0,30.23,West,279,2.0,9.0,32,0.00,,,0.00,weatherlink.com 1.10,2013-03-27 21:30:00,
2013-03-27 17:45:00,58.9,30.0,30.23,NW,305,1.0,8.0,33,0.00,,,0.00,weatherlink.com 1.10,2013-03-27 21:45:00,
2013-03-27 18:00:00,58.3,29.0,30.22,WNW,287,6.0,7.0,33,0.00,,,0.00,weatherlink.com 1.10,2013-03-27 22:00:00,
2013-03-27 18:15:00,57.3,30.0,30.23,WNW,300,3.0,12.0,35,0.00,,,0.00,weatherlink.com 1.10,2013-03-27 22:15:00,
2013-03-27 18:30:00,56.3,30.0,30.23,NW,309,0.0,4.0,37,0.00,,,0.00,weatherlink.com 1.10,2013-03-27 22:30:00,
2013-03-27 18:45:00,55.6,32.0,30.23,NW,310,1.0,4.0,41,0.00,,,0.00,weatherlink.com 1.10,2013-03-27 22:45:00,
2013-03-27 19:00:00,55.0,33.0,30.24,NW,308,1.0,3.0,43,0.00,,,0.00,weatherlink.com 1.10,2013-03-27 23:00:00,
2013-03-27 19:15:00,54.2,34.0,30.23,WNW,285,1.0,3.0,46,0.00,,,0.00,weatherlink.com 1.10,2013-03-27 23:15:00,
2013-03-27 19:30:00,53.2,34.0,30.23,WNW,289,0.0,3.0,49,0.00,,,0.00,weatherlink.com 1.10,2013-03-27 23:30:00,
2013-03-27 19:45:00,51.9,35.0,30.23,WNW,289,1.0,1.0,52,0.00,,,0.00,weatherlink.com 1.10,2013-03-27 23:45:00,
2013-03-27 20:00:00,50.6,35.0,30.24,WNW,289,0.0,2.0,56,0.00,,,0.00,weatherlink.com 1.10,2013-03-28 00:00:00,
2013-03-27 20:15:00,49.6,36.0,30.24,WNW,289,0.0,1.0,60,0.00,,,0.00,weatherlink.com 1.10,2013-03-28 00:15:00,
2013-03-27 20:30:00,48.8,36.0,30.24,WNW,289,0.0,1.0,62,0.00,,,0.00,weatherlink.com 1.10,2013-03-28 00:30:00,
2013-03-27 20:45:00,47.9,37.0,30.25,WNW,289,0.0,2.0,65,0.00,,,0.00,weatherlink.com 1.10,2013-03-28 00:45:00,
2013-03-27 21:00:00,47.1,37.0,30.25,WNW,289,0.0,1.0,69,0.00,,,0.00,weatherlink.com 1.10,2013-03-28 01:00:00,
2013-03-27 21:15:00,46.0,37.0,30.25,WNW,289,0.0,1.0,71,0.00,,,0.00,weatherlink.com 1.10,2013-03-28 01:15:00,
2013-03-27 21:30:00,45.5,38.0,30.25,WNW,288,0.0,0.0,74,0.00,,,0.00,weatherlink.com 1.10,2013-03-28 01:30:00,
2013-03-27 21:46:00,44.8,38.0,30.26,WNW,289,0.0,1.0,76,0.00,,,0.00,weatherlink.com 1.10,2013-03-28 01:46:00,
2013-03-27 22:01:00,44.8,38.0,30.26,WNW,289,0.0,1.0,78,0.00,,,0.00,weatherlink.com 1.10,2013-03-28 02:01:00,
2013-03-27 22:16:00,44.0,38.0,30.27,WNW,289,0.0,0.0,80,0.00,,,0.00,weatherlink.com 1.10,2013-03-28 02:16:00,
2013-03-27 22:31:00,42.5,38.0,30.27,WNW,289,0.0,0.0,83,0.00,,,0.00,weatherlink.com 1.10,2013-03-28 02:31:00,
2013-03-27 22:46:00,41.4,38.0,30.27,WNW,289,0.0,0.0,87,0.00,,,0.00,weatherlink.com 1.10,2013-03-28 02:46:00,
2013-03-27 23:01:00,41.6,38.0,30.28,WNW,289,0.0,0.0,86,0.00,,,0.00,weatherlink.com 1.10,2013-03-28 03:01:00,
2013-03-27 23:16:00,40.5,37.0,30.28,WNW,288,0.0,0.0,87,0.00,,,0.00,weatherlink.com 1.10,2013-03-28 03:16:00,
2013-03-27 23:31:00,40.0,38.0,30.28,WNW,288,0.0,0.0,91,0.00,,,0.00,weatherlink.com 1.10,2013-03-28 03:31:00,
2013-03-27 23:46:00,40.2,38.0,30.27,WNW,289,0.0,0.0,91,0.00,,,0.00,weatherlink.com 1.10,2013-03-28 03:46:00,